DELTA 1 DEB

Satellite information

Favourite Embed

Satellite Type and Status

DEBRISIN ORBIT

Key statistics

Satellite DELTA 1 DEB at a glance.

Uptime

20998

Days in orbit

Revolutions

≈ 12.8

Per day

Orbit

SSO

Sun Synchronous Orbit

Inclination

106.1

Latest

Satellite identification and parameters

Extended collection of information and parameters for DELTA 1 DEB.

Object identification

Identified? True

Debris? True

Object name: DELTA 1 DEB

International designator: 1968-002C

Object number (NORAD): 3126

Object ID (CCSDS): 3126

Country: UNITED STATES OF AMERICA (US)

Current information (Y/N): Y

RCS size: SMALL

Orbital parameters

Period: 112.285 minutes

Inclination: 106.0723 deg

SMA: 7709.787 km

Apoapsis: 1579.796 km

Periapsis: 1083.509 km

RAAN: 346.0055 deg

Eccentricy: 0.0321855

Argument of periapsis: 349.7975 deg

Mean anomaly: 125.1015 deg

Mean motion: 12.82446218 rev/day

Mean motion (dot): -0.00000063 rev/day2

B* drag term: 0.000049659 1/REarth

Two-line elements (TLE)

Creation date: July 6, 2025, 6:05 p.m.

Reference frame: TEME

Reference center: EARTH

Epoch: July 6, 2025, 7:23 a.m. UTC

TLE line 0: 0 DELTA 1 DEB

TLE line 1: 1 03126U 68002C 25187.30797751 -.00000063 00000-0 49659-4 0 9997

TLE line 2: 2 03126 106.0723 346.0055 0321855 349.7975 125.1015 12.82446218689943

Live tracking on map

Real-time ground track for satellite DELTA 1 DEB.

In-orbit conjunctions

A list of the most updated potential collisions computed for object DELTA 1 DEB.

Target Orbit TCA Probability of collision Miss distance Type
COSMOS 397 DEB LEO 2024-08-21 03:23:25 0.0008739823 13.0 (m) DEBRIS

Associated space launch

The GEOS 1 (Geodetic Earth Orbiting Satellite) spacecraft was a gravity-gradient-stabilized, solar-cell powered unit designed exclusively for geodetic studies.

DELTA 1 DEB was lifted into orbit during the mission ‘Thor Delta E1 | GEOS B’, on board a Thor Delta E1 space rocket.

The launch took place on Jan. 11, 1968, 4:16 p.m. from Space Launch Complex 2E.

For more information about the launch, click the button.

Launch to space Thor Delta E1 | GEOS B
Thor Delta E1 | GEOS B

Agency: N/A

Status: Launch Successful

Launch date: Jan. 11, 1968, 4:16 p.m. UTC

Rocket: Thor Delta E1

Launch pad: Space Launch Complex 2E

Location: Vandenberg SFB, CA, USA

...

Latest news about this satellite

There are no fresh news available about this satellite. Check back as we update our databases every day.


Newsletter sign-up

Weekly statistics, charts and insights to help you stay on top of the space industry.